Starlink 33763

operational
NORAD ID: 63452 Int'l Des: 2025-069 Owner: SPXS Country: US Constellation: starlink
LEOCIRCULAR

Über Starlink 33763

Beschreibung wird geladen...

Live-Position

3D-Globus wird geladen...

Nächste Überflüge

Höhenverlauf

Altitude vs Time

uPlot chart will show altitude changes over time

Zweizeiliger Elementsatz

1 63452U 25069V 25353.19679859 .00014799 00000-0 51076-3 0 9996
2 63452 53.1586 156.1475 0001060 69.2049 290.9066 15.30201330 41089
Epoch: 19. Dez. 2025 • Age: 14 hours

Aktueller Status

Höhe 490.9 km
Geschwindigkeit 7.62 km/s
Subsatellitenpunkt -44.39°S, 17.1°E
Startdatum 4. Apr. 2025
Alter 0.7 years
Typ internet

Technische Details

Klassifizierung Payload
Masse 575.00 kg
Trockenmasse 530.00 kg
Gesamtmasse 575.00 kg
Länge 0.30 m
Durchmesser 4.10 m
Spannweite 29.00 m
Form Box + pan
Hersteller SPXS
Bus-Typ Starlink V2MO
Phasenstatus In Orbit
Besitzer/Staat SPXS/US

Große Konstellationen

Loading constellations...